GW3809 Weather Reports


Display with metric or nautical units.
time (UTC)temp
F
wind
direction
speed
MPH
gust
MPH
rain 1hr
in
rain 24hr
in
rain mn
in
humidity
%
barometer
mb
20260905114946 82 194 2.0 5.0 0.00 0.00 0.00 85 1012.5
20260905114445 82 185 2.0 6.0 0.00 0.00 0.00 84 1012.7
20260905113944 82 156 5.0 7.0 0.00 0.00 0.00 84 1012.9
20260905113440 82 170 2.0 6.0 0.00 0.00 0.00 84 1012.7
20260905112935 82 182 4.0 4.0 0.00 0.00 0.00 84 1012.7
20260905112430 83 191 3.0 4.0 0.00 0.00 0.00 84 1012.4
20260905111925 82 159 3.0 5.0 0.00 0.00 0.00 84 1012.5
20260905111420 83 163 3.0 6.0 0.00 0.00 0.00 84 1012.4
20260905110920 83 165 3.0 6.0 0.00 0.00 0.00 84 1012.4
20260905110414 83 149 5.0 7.0 0.00 0.00 0.00 84 1012.6
20260905105909 83 148 4.0 6.0 0.00 0.00 0.00 84 1012.5
20260905105408 83 164 4.0 8.0 0.00 0.00 0.00 84 1012.6
20260905104908 83 160 2.0 7.0 0.00 0.00 0.00 84 1012.5
20260905104404 83 178 2.0 6.0 0.00 0.00 0.00 84 1012.6
20260905103858 83 164 3.0 6.0 0.00 0.00 0.00 84 1012.7
20260905103354 83 158 4.0 5.0 0.00 0.00 0.00 84 1012.7
20260905102850 83 180 3.0 5.0 0.00 0.00 0.00 84 1012.9
20260905102346 83 164 5.0 8.0 0.00 0.00 0.00 84 1012.8
20260905101840 83 157 5.0 6.0 0.00 0.00 0.00 84 1012.6
20260905101338 83 159 6.0 6.0 0.00 0.00 0.00 84 1012.6
20260905100832 83 185 1.0 5.0 0.00 0.00 0.00 83 1012.7
20260905100329 83 163 3.0 5.0 0.00 0.00 0.00 83 1012.6
20260905095828 83 185 2.0 5.0 0.00 0.00 0.00 83 1012.7
20260905095323 83 194 5.0 7.0 0.00 0.00 0.00 83 1012.8
20260905094818 83 154 4.0 5.0 0.00 0.00 0.00 83 1012.9
20260905094313 83 165 3.0 7.0 0.00 0.00 0.00 83 1012.7
20260905093811 83 182 2.0 6.0 0.00 0.00 0.00 83 1012.7
20260905093308 84 215 3.0 6.0 0.00 0.00 0.00 83 1012.9
20260905092803 84 161 4.0 8.0 0.00 0.00 0.00 83 1012.8
20260905092258 84 143 10.0 11.0 0.00 0.00 0.00 83 1012.9
20260905091758 84 155 3.0 10.0 0.00 0.00 0.00 82 1012.8
20260905091253 84 146 6.0 6.0 0.00 0.00 0.00 82 1012.9
20260905090751 84 184 8.0 8.0 0.00 0.00 0.00 82 1013.1
20260905090248 84 166 5.0 6.0 0.00 0.00 0.00 82 1013.1
20260905085742 84 181 4.0 5.0 0.00 0.00 0.00 82 1013.1
20260905085241 84 166 4.0 6.0 0.00 0.00 0.00 82 1012.9
20260905084741 84 185 4.0 6.0 0.00 0.00 0.00 82 1012.9
20260905084236 84 158 4.0 6.0 0.00 0.00 0.00 82 1013.0
20260905083731 84 192 3.0 9.0 0.00 0.00 0.00 82 1013.1
20260905083226 84 159 4.0 12.0 0.00 0.00 0.00 82 1013.1
20260905082722 84 203 4.0 7.0 0.00 0.00 0.00 82 1013.0
20260905082218 84 163 4.0 4.0 0.00 0.00 0.00 82 1013.1
20260905081718 84 176 2.0 8.0 0.00 0.00 0.00 82 1013.1
20260905081213 84 165 3.0 6.0 0.00 0.00 0.00 82 1013.2
20260905080712 84 200 3.0 5.0 0.00 0.00 0.00 82 1013.3
20260905080207 84 167 3.0 5.0 0.00 0.00 0.00 82 1013.2
20260905075706 84 161 3.0 7.0 0.00 0.00 0.00 82 1013.3
20260905075205 84 152 4.0 7.0 0.00 0.00 0.00 82 1013.4
20260905074704 84 157 7.0 8.0 0.00 0.00 0.00 82 1013.5
20260905074201 84 153 3.0 4.0 0.00 0.00 0.00 82 1013.3
20260905073656 84 177 3.0 7.0 0.00 0.00 0.00 82 1013.3
20260905073152 84 174 5.0 5.0 0.00 0.00 0.00 82 1013.6
20260905072651 84 166 3.0 5.0 0.00 0.00 0.00 82 1013.5
20260905072146 84 182 3.0 7.0 0.00 0.00 0.00 81 1013.3
20260905071643 84 161 4.0 8.0 0.00 0.00 0.00 81 1013.7
20260905071138 84 167 4.0 5.0 0.00 0.00 0.00 81 1013.6
20260905070633 84 162 7.0 7.0 0.00 0.00 0.00 81 1013.7
20260905070129 84 165 4.0 6.0 0.00 0.00 0.00 81 1013.7
20260905065627 84 148 4.0 9.0 0.00 0.00 0.00 81 1013.8
20260905065122 84 143 3.0 7.0 0.00 0.00 0.00 81 1013.9
20260905064617 84 151 5.0 9.0 0.00 0.00 0.00 81 1013.8
20260905064113 84 156 4.0 9.0 0.00 0.00 0.00 81 1013.9
20260905063611 84 155 3.0 3.0 0.00 0.00 0.00 81 1013.8
20260905063108 84 148 6.0 8.0 0.00 0.00 0.00 81 1014.0
20260905062603 84 107 2.0 10.0 0.00 0.00 0.00 81 1013.7
20260905062103 84 141 3.0 4.0 0.00 0.00 0.00 81 1013.7
20260905061557 84 153 5.0 7.0 0.00 0.00 0.00 80 1013.9
20260905061056 85 159 4.0 6.0 0.00 0.00 0.00 80 1013.8
20260905060552 85 153 7.0 9.0 0.00 0.00 0.00 80 1013.6
20260905060048 85 167 3.0 7.0 0.00 0.00 0.00 80 1013.7
20260905055546 85 152 3.0 7.0 0.00 0.00 0.00 80 1013.5
20260905055042 85 153 5.0 10.0 0.00 0.00 0.00 80 1013.5
20260905054537 85 137 8.0 9.0 0.00 0.00 0.00 80 1013.4
20260905054033 85 150 4.0 6.0 0.00 0.00 0.00 79 1013.4
20260905053527 85 161 6.0 11.0 0.00 0.00 0.00 79 1013.5
20260905053023 85 179 4.0 11.0 0.00 0.00 0.00 79 1013.6
20260905052521 85 156 6.0 8.0 0.00 0.00 0.00 79 1013.7
20260905052016 85 189 6.0 11.0 0.00 0.00 0.00 79 1013.6
20260905051512 85 160 7.0 11.0 0.00 0.00 0.00 79 1013.7
20260905051009 85 157 7.0 11.0 0.00 0.00 0.00 79 1013.7
20260905050504 85 163 4.0 7.0 0.00 0.00 0.00 79 1013.8
20260905050000 85 154 6.0 8.0 0.00 0.00 0.00 79 1013.9
20260905045449 85 157 7.0 11.0 0.00 0.00 0.00 79 1013.7
20260905044944 85 150 6.0 10.0 0.00 0.00 0.00 78 1013.6
20260905044439 85 176 3.0 6.0 0.00 0.00 0.00 78 1013.7
20260905043939 85 166 5.0 12.0 0.00 0.00 0.00 78 1013.6
20260905043438 85 135 10.0 13.0 0.00 0.00 0.00 78 1013.6
20260905042933 85 148 6.0 15.0 0.00 0.00 0.00 78 1013.4
20260905042427 85 155 5.0 12.0 0.00 0.00 0.00 78 1013.6
20260905041922 86 164 7.0 14.0 0.00 0.00 0.00 77 1013.5
20260905041413 86 159 5.0 7.0 0.00 0.00 0.00 77 1013.7
20260905040913 86 153 4.0 8.0 0.00 0.00 0.00 77 1014.0
20260905040412 86 143 8.0 17.0 0.00 0.00 0.00 77 1013.9
20260905035911 86 156 5.0 12.0 0.00 0.00 0.00 77 1014.0
20260905035407 86 142 8.0 9.0 0.00 0.00 0.00 76 1014.0
20260905034904 86 150 5.0 11.0 0.00 0.00 0.00 76 1014.2
20260905034359 86 157 6.0 12.0 0.00 0.00 0.00 75 1014.0
20260905033857 86 149 5.0 10.0 0.00 0.00 0.00 75 1013.7
20260905033353 86 161 10.0 13.0 0.00 0.00 0.00 74 1013.9
20260905032852 86 146 11.0 13.0 0.00 0.00 0.00 74 1014.1
20260905032348 86 161 8.0 12.0 0.00 0.00 0.00 74 1013.7
20260905031843 86 159 9.0 13.0 0.00 0.00 0.00 74 1013.9
20260905031339 86 132 9.0 14.0 0.00 0.00 0.00 73 1013.7
20260905030833 87 138 10.0 15.0 0.00 0.00 0.00 73 1013.6
20260905030329 87 150 9.0 15.0 0.00 0.00 0.00 73 1013.6
20260905025828 87 155 6.0 11.0 0.00 0.00 0.00 73 1013.5
20260905025324 87 151 7.0 13.0 0.00 0.00 0.00 72 1013.6
20260905024820 87 178 5.0 11.0 0.00 0.00 0.00 72 1013.3
20260905024315 87 145 10.0 13.0 0.00 0.00 0.00 71 1013.3
20260905023810 87 137 6.0 16.0 0.00 0.00 0.00 71 1013.4
20260905023306 87 160 8.0 16.0 0.00 0.00 0.00 70 1013.5
20260905022804 87 149 7.0 16.0 0.00 0.00 0.00 70 1013.3
20260905022300 87 155 8.0 16.0 0.00 0.00 0.00 70 1013.1
20260905021800 87 131 13.0 16.0 0.00 0.00 0.00 70 1012.8
20260905021255 88 144 10.0 15.0 0.00 0.00 0.00 69 1012.7
20260905020749 88 164 7.0 9.0 0.00 0.00 0.00 69 1012.7
20260905020245 88 142 9.0 18.0 0.00 0.00 0.00 69 1012.6
20260905015743 88 153 5.0 12.0 0.00 0.00 0.00 68 1012.7
20260905015238 89 141 6.0 13.0 0.00 0.00 0.00 68 1012.4
20260905014737 89 154 8.0 13.0 0.00 0.00 0.00 67 1012.4
20260905014233 89 139 7.0 11.0 0.00 0.00 0.00 67 1012.4
20260905013728 89 128 14.0 16.0 0.00 0.00 0.00 66 1012.4
20260905013224 89 134 12.0 13.0 0.00 0.00 0.00 66 1012.4
20260905012719 89 168 5.0 18.0 0.00 0.00 0.00 66 1012.4
20260905012215 89 146 7.0 15.0 0.00 0.00 0.00 65 1012.4
20260905011706 89 140 9.0 23.0 0.00 0.00 0.00 65 1012.1
20260905011201 90 147 7.0 17.0 0.00 0.00 0.00 65 1011.8
20260905010656 90 164 6.0 13.0 0.00 0.00 0.00 64 1012.0
20260905010152 90 140 11.0 15.0 0.00 0.00 0.00 64 1011.9
20260905005648 90 140 14.0 18.0 0.00 0.00 0.00 63 1011.9
20260905005143 91 163 13.0 19.0 0.00 0.00 0.00 62 1011.8
20260905004643 91 153 7.0 15.0 0.00 0.00 0.00 59 1011.8
20260905004138 91 153 13.0 14.0 0.00 0.00 0.00 59 1011.6
20260905003633 92 144 12.0 16.0 0.00 0.00 0.00 58 1011.9
20260905003129 92 131 10.0 17.0 0.00 0.00 0.00 58 1011.6
20260905002624 92 147 11.0 18.0 0.00 0.00 0.00 57 1011.6
20260905002119 93 146 10.0 15.0 0.00 0.00 0.00 56 1011.5
20260905001614 93 167 7.0 12.0 0.00 0.00 0.00 56 1011.5
20260905001108 93 172 7.0 15.0 0.00 0.00 0.00 55 1011.5
20260905000604 94 145 10.0 20.0 0.00 0.00 0.00 54 1011.4
20260905000100 94 159 13.0 18.0 0.00 0.00 0.00 53 1011.3
20260904235559 94 147 10.0 19.0 0.00 0.00 0.00 53 1011.2
20260904235059 95 143 8.0 16.0 0.00 0.00 0.00 52 1011.1
20260904234554 95 140 13.0 17.0 0.00 0.00 0.00 52 1010.8
20260904234051 96 137 14.0 17.0 0.00 0.00 0.00 50 1011.0
20260904233550 96 146 13.0 16.0 0.00 0.00 0.00 50 1010.8
20260904233047 96 148 8.0 14.0 0.00 0.00 0.00 48 1010.8
20260904232543 96 146 8.0 21.0 0.00 0.00 0.00 47 1011.0
20260904232039 96 155 9.0 15.0 0.00 0.00 0.00 46 1010.7
20260904231535 96 139 13.0 20.0 0.00 0.00 0.00 47 1010.7
20260904231030 97 134 14.0 16.0 0.00 0.00 0.00 46 1010.8
20260904230529 98 130 15.0 17.0 0.00 0.00 0.00 46 1010.7
20260904230025 98 153 6.0 18.0 0.00 0.00 0.00 46 1010.6
20260904225522 98 152 13.0 21.0 0.00 0.00 0.00 45 1010.7
20260904225021 98 194 7.0 12.0 0.00 0.00 0.00 45 1010.7
20260904224517 98 139 7.0 15.0 0.00 0.00 0.00 44 1010.6
20260904224017 99 138 8.0 14.0 0.00 0.00 0.00 44 1010.4
20260904223516 99 148 9.0 15.0 0.00 0.00 0.00 44 1010.7
20260904223012 99 156 4.0 13.0 0.00 0.00 0.00 45 1010.8
20260904222507 99 183 6.0 18.0 0.00 0.00 0.00 45 1010.6
20260904222008 99 134 16.0 19.0 0.00 0.00 0.00 45 1010.7
20260904221502 100 163 9.0 16.0 0.00 0.00 0.00 43 1010.7
20260904220957 100 131 10.0 14.0 0.00 0.00 0.00 43 1010.5
20260904220456 100 144 15.0 16.0 0.00 0.00 0.00 42 1010.4
20260904215952 101 131 13.0 16.0 0.00 0.00 0.00 41 1010.5
20260904215447 100 206 3.0 11.0 0.00 0.00 0.00 41 1010.4
20260904214943 99 134 8.0 12.0 0.00 0.00 0.00 42 1010.5
20260904214438 100 171 5.0 13.0 0.00 0.00 0.00 42 1010.6
20260904213933 101 142 11.0 17.0 0.00 0.00 0.00 40 1010.5
20260904213426 101 142 8.0 14.0 0.00 0.00 0.00 40 1010.5
20260904212923 101 182 6.0 10.0 0.00 0.00 0.00 38 1010.5
20260904212422 101 138 8.0 13.0 0.00 0.00 0.00 39 1010.7
20260904211918 101 151 9.0 13.0 0.00 0.00 0.00 37 1010.8
20260904211413 100 137 7.0 11.0 0.00 0.00 0.00 36 1010.7
20260904210908 101 135 7.0 12.0 0.00 0.00 0.00 36 1010.9
20260904210407 100 186 6.0 10.0 0.00 0.00 0.00 37 1010.8
20260904205903 100 193 4.0 12.0 0.00 0.00 0.00 37 1010.9
20260904205358 100 144 6.0 11.0 0.00 0.00 0.00 37 1011.0
20260904204855 101 189 6.0 12.0 0.00 0.00 0.00 37 1011.0
20260904204351 100 139 8.0 8.0 0.00 0.00 0.00 39 1010.9
20260904203847 101 143 9.0 14.0 0.00 0.00 0.00 38 1011.2
20260904203343 101 163 7.0 13.0 0.00 0.00 0.00 38 1011.0
20260904202838 101 145 9.0 13.0 0.00 0.00 0.00 37 1011.3
20260904202335 101 170 6.0 9.0 0.00 0.00 0.00 39 1011.1
20260904201830 100 146 6.0 12.0 0.00 0.00 0.00 39 1011.2
20260904201325 101 167 8.0 13.0 0.00 0.00 0.00 39 1011.4
20260904200820 101 144 9.0 11.0 0.00 0.00 0.00 38 1011.2
20260904200318 100 148 8.0 10.0 0.00 0.00 0.00 41 1011.4
20260904195813 100 130 9.0 13.0 0.00 0.00 0.00 42 1011.3
20260904195311 100 133 4.0 13.0 0.00 0.00 0.00 42 1011.3
20260904194806 100 144 7.0 15.0 0.00 0.00 0.00 43 1011.3
20260904194305 100 165 3.0 9.0 0.00 0.00 0.00 42 1011.5
20260904193801 99 163 7.0 11.0 0.00 0.00 0.00 43 1011.5
20260904193256 99 151 6.0 9.0 0.00 0.00 0.00 42 1011.7
20260904192752 100 145 3.0 5.0 0.00 0.00 0.00 43 1011.9
20260904192247 99 147 13.0 15.0 0.00 0.00 0.00 45 1011.8
20260904191744 99 149 6.0 9.0 0.00 0.00 0.00 45 1011.8
20260904191240 99 134 7.0 13.0 0.00 0.00 0.00 44 1012.0
20260904190736 99 170 5.0 9.0 0.00 0.00 0.00 45 1011.9
20260904190232 99 178 4.0 12.0 0.00 0.00 0.00 44 1012.1
20260904185728 100 187 7.0 10.0 0.00 0.00 0.00 44 1012.1
20260904185222 99 205 5.0 9.0 0.00 0.00 0.00 43 1012.2
20260904184721 99 141 8.0 12.0 0.00 0.00 0.00 43 1012.3
20260904184217 99 152 7.0 17.0 0.00 0.00 0.00 43 1012.4
20260904183713 99 163 9.0 9.0 0.00 0.00 0.00 42 1012.5
20260904183212 99 164 8.0 16.0 0.00 0.00 0.00 42 1012.6
20260904182708 99 167 6.0 9.0 0.00 0.00 0.00 44 1012.8
20260904182208 98 207 6.0 10.0 0.00 0.00 0.00 44 1012.9
20260904181659 98 132 8.0 13.0 0.00 0.00 0.00 44 1012.8
20260904181158 98 171 10.0 13.0 0.00 0.00 0.00 45 1012.9
20260904180653 97 167 5.0 10.0 0.00 0.00 0.00 45 1013.0
20260904180149 98 162 8.0 12.0 0.00 0.00 0.00 46 1013.1
20260904175648 97 172 4.0 15.0 0.00 0.00 0.00 46 1013.1
20260904175146 97 160 6.0 12.0 0.00 0.00 0.00 47 1013.1
20260904174641 97 169 4.0 14.0 0.00 0.00 0.00 47 1013.2
20260904174137 97 143 7.0 14.0 0.00 0.00 0.00 46 1013.3
20260904173633 97 162 5.0 9.0 0.00 0.00 0.00 48 1013.3
20260904173123 98 197 8.0 10.0 0.00 0.00 0.00 48 1013.5
20260904172619 98 149 9.0 11.0 0.00 0.00 0.00 47 1013.5
20260904172117 96 193 4.0 8.0 0.00 0.00 0.00 50 1013.5
20260904171612 96 149 9.0 12.0 0.00 0.00 0.00 49 1013.7
20260904171103 96 178 8.0 13.0 0.00 0.00 0.00 50 1013.7
20260904170558 96 146 3.0 11.0 0.00 0.00 0.00 51 1013.6
20260904170054 95 141 9.0 14.0 0.00 0.00 0.00 54 1013.7
20260904165552 94 181 7.0 13.0 0.00 0.00 0.00 54 1013.9
20260904165046 94 173 8.0 12.0 0.00 0.00 0.00 52 1013.9
20260904164536 94 180 8.0 11.0 0.00 0.00 0.00 52 1013.9
20260904164032 94 146 8.0 12.0 0.00 0.00 0.00 56 1013.9
20260904163531 93 192 8.0 11.0 0.00 0.00 0.00 58 1013.9
20260904163027 93 178 8.0 14.0 0.00 0.00 0.00 58 1013.9
20260904162521 93 162 9.0 11.0 0.00 0.00 0.00 59 1014.0
20260904162016 92 135 9.0 12.0 0.00 0.00 0.00 60 1013.9
20260904161516 92 187 9.0 10.0 0.00 0.00 0.00 59 1013.8
20260904161012 92 191 5.0 11.0 0.00 0.00 0.00 59 1013.9
20260904160507 91 182 6.0 15.0 0.00 0.00 0.00 61 1014.0
20260904160003 91 156 9.0 13.0 0.00 0.00 0.00 61 1014.0
20260904155456 91 148 16.0 16.0 0.00 0.00 0.00 61 1014.0
20260904154955 91 167 6.0 13.0 0.00 0.00 0.00 62 1013.9
20260904154449 90 157 7.0 14.0 0.00 0.00 0.00 64 1014.1
20260904153944 90 197 5.0 9.0 0.00 0.00 0.00 65 1014.0
20260904153439 90 199 8.0 14.0 0.00 0.00 0.00 65 1014.1
20260904152936 89 176 8.0 13.0 0.00 0.00 0.00 66 1014.1
20260904152432 89 169 11.0 17.0 0.00 0.00 0.00 67 1014.1
20260904151931 89 158 11.0 13.0 0.00 0.00 0.00 67 1014.1
20260904151426 88 149 11.0 13.0 0.00 0.00 0.00 70 1013.9
20260904150921 88 175 8.0 13.0 0.00 0.00 0.00 70 1014.0
20260904150416 88 178 6.0 16.0 0.00 0.00 0.00 71 1013.9
20260904145913 87 155 8.0 15.0 0.00 0.00 0.00 71 1013.9
20260904145410 88 145 13.0 18.0 0.00 0.00 0.00 71 1013.7
20260904144905 88 170 12.0 15.0 0.00 0.00 0.00 71 1013.9
20260904144401 88 187 9.0 12.0 0.00 0.00 0.00 72 1013.8
20260904143856 88 139 4.0 13.0 0.00 0.00 0.00 74 1013.9
20260904143353 86 164 6.0 10.0 0.00 0.00 0.00 77 1013.8
20260904142849 86 147 9.0 13.0 0.00 0.00 0.00 77 1013.8
20260904142345 86 148 7.0 12.0 0.00 0.00 0.00 77 1013.7
20260904141839 86 148 6.0 11.0 0.00 0.00 0.00 77 1014.0
20260904141335 86 174 5.0 9.0 0.00 0.00 0.00 78 1013.7
20260904140831 85 195 5.0 12.0 0.00 0.00 0.00 79 1013.8
20260904140326 85 145 9.0 11.0 0.00 0.00 0.00 79 1013.7
20260904135824 84 140 6.0 11.0 0.00 0.00 0.00 79 1014.0
20260904135320 84 168 5.0 9.0 0.00 0.00 0.00 80 1013.8
20260904134816 84 148 5.0 8.0 0.00 0.00 0.00 80 1013.9
20260904134315 84 136 6.0 10.0 0.00 0.00 0.00 80 1013.9
20260904133810 84 175 4.0 8.0 0.00 0.00 0.00 81 1013.9
20260904133306 84 144 7.0 11.0 0.00 0.00 0.00 81 1013.7
20260904132805 83 172 5.0 10.0 0.00 0.00 0.00 81 1013.6
20260904132301 83 133 12.0 13.0 0.00 0.00 0.00 82 1013.6
20260904131800 83 154 6.0 11.0 0.00 0.00 0.00 82 1013.5
20260904131256 83 156 5.0 5.0 0.00 0.00 0.00 83 1013.6
20260904130755 83 153 6.0 10.0 0.00 0.00 0.00 83 1013.4
20260904130255 82 130 5.0 6.0 0.00 0.00 0.00 83 1013.5
20260904125751 82 144 6.0 6.0 0.00 0.00 0.00 84 1013.5
20260904125246 82 152 5.0 7.0 0.00 0.00 0.00 84 1013.3
20260904124741 82 154 5.0 6.0 0.00 0.00 0.00 84 1013.3
20260904124238 82 157 4.0 7.0 0.00 0.00 0.00 84 1013.4
20260904123737 82 154 4.0 7.0 0.00 0.00 0.00 85 1013.5
20260904123232 82 177 4.0 11.0 0.00 0.00 0.00 85 1013.2
20260904122728 82 151 6.0 8.0 0.00 0.00 0.00 85 1013.2
20260904122222 82 152 5.0 9.0 0.00 0.00 0.00 84 1013.1
20260904121718 82 173 3.0 9.0 0.00 0.00 0.00 84 1013.0
20260904121214 82 147 5.0 5.0 0.00 0.00 0.00 84 1013.0
20260904120710 82 136 8.0 9.0 0.00 0.00 0.00 84 1012.9
20260904120206 82 169 3.0 5.0 0.00 0.00 0.00 84 1012.8
20260904115701 82 146 5.0 5.0 0.00 0.00 0.00 84 1012.7